TimeCDT,TemperatureF,Dew PointF,Humidity,Sea Level PressureIn,VisibilityMPH,Wind Direction,Wind SpeedMPH,Gust SpeedMPH,PrecipitationIn,Events,Conditions,WindDirDegrees,DateUTC
12:13 AM,75.2,60.8,61,29.79,10.0,SSE,13.8,21.9,N/A,,Clear,150,2013-09-28 05:13:00
12:33 AM,75.2,60.8,61,29.78,10.0,SE,13.8,20.7,N/A,,Clear,130,2013-09-28 05:33:00
12:53 AM,75.2,60.8,61,29.78,10.0,SE,15.0,19.6,N/A,,Scattered Clouds,140,2013-09-28 05:53:00
1:13 AM,73.4,60.8,65,29.77,10.0,SE,12.7,20.7,N/A,,Clear,140,2013-09-28 06:13:00
1:33 AM,73.4,60.8,65,29.77,10.0,SE,12.7,20.7,N/A,,Clear,140,2013-09-28 06:33:00
1:53 AM,73.4,59.0,61,29.77,10.0,SE,11.5,-,N/A,,Clear,130,2013-09-28 06:53:00
2:13 AM,71.6,59.0,64,29.77,10.0,SE,12.7,19.6,N/A,,Clear,140,2013-09-28 07:13:00
2:33 AM,71.6,59.0,64,29.77,10.0,SE,16.1,19.6,N/A,,Clear,140,2013-09-28 07:33:00
2:53 AM,71.6,59.0,64,29.75,10.0,SE,10.4,20.7,N/A,,Clear,130,2013-09-28 07:53:00
3:13 AM,71.6,57.2,60,29.75,10.0,SE,12.7,19.6,N/A,,Clear,140,2013-09-28 08:13:00
3:33 AM,69.8,57.2,64,29.74,10.0,SE,12.7,18.4,N/A,,Clear,130,2013-09-28 08:33:00
3:53 AM,69.8,57.2,64,29.74,10.0,SE,16.1,-,N/A,,Mostly Cloudy,140,2013-09-28 08:53:00
4:13 AM,69.8,57.2,64,29.73,10.0,SE,12.7,16.1,N/A,,Scattered Clouds,140,2013-09-28 09:13:00
4:33 AM,69.8,59.0,68,29.72,10.0,SE,11.5,19.6,N/A,,Scattered Clouds,130,2013-09-28 09:33:00
4:53 AM,69.8,59.0,68,29.71,10.0,SE,13.8,20.7,N/A,,Mostly Cloudy,140,2013-09-28 09:53:00
5:13 AM,69.8,59.0,68,29.70,10.0,SE,12.7,17.3,N/A,,Scattered Clouds,130,2013-09-28 10:13:00
5:34 AM,69.8,59.0,68,29.70,10.0,SE,12.7,-,N/A,,Mostly Cloudy,130,2013-09-28 10:34:00
5:53 AM,69.8,59.0,68,29.69,10.0,SE,15.0,23.0,N/A,,Scattered Clouds,130,2013-09-28 10:53:00
6:13 AM,69.8,59.0,68,29.68,10.0,SE,15.0,20.7,N/A,,Scattered Clouds,130,2013-09-28 11:13:00
6:33 AM,69.8,59.0,68,29.68,10.0,SE,13.8,20.7,N/A,,Mostly Cloudy,140,2013-09-28 11:33:00
6:53 AM,69.8,59.0,68,29.67,10.0,SE,15.0,20.7,N/A,,Mostly Cloudy,140,2013-09-28 11:53:00
7:13 AM,69.8,59.0,68,29.67,10.0,SE,13.8,19.6,N/A,,Mostly Cloudy,140,2013-09-28 12:13:00
7:34 AM,69.8,59.0,68,29.66,10.0,SE,12.7,20.7,N/A,,Overcast,140,2013-09-28 12:34:00
7:53 AM,69.8,59.0,68,29.65,10.0,SE,15.0,24.2,N/A,,Overcast,140,2013-09-28 12:53:00
8:13 AM,69.8,59.0,68,29.65,10.0,SE,15.0,24.2,N/A,,Overcast,140,2013-09-28 13:13:00
8:33 AM,69.8,60.8,73,29.65,10.0,SSE,17.3,26.5,N/A,Rain,Light Rain,150,2013-09-28 13:33:00
8:53 AM,66.2,60.8,83,29.64,10.0,SSE,12.7,20.7,N/A,,Overcast,150,2013-09-28 13:53:00
9:13 AM,66.2,60.8,83,29.64,10.0,SSE,10.4,-,N/A,,Overcast,150,2013-09-28 14:13:00
9:33 AM,66.2,60.8,83,29.63,5.0,SE,12.7,-,0.03,Rain,Rain,140,2013-09-28 14:33:00
9:53 AM,64.4,62.6,94,29.62,7.0,SE,11.5,16.1,0.06,Rain,Light Rain,140,2013-09-28 14:53:00
10:13 AM,64.4,62.6,94,29.61,10.0,SE,12.7,18.4,0.02,Rain,Light Rain,140,2013-09-28 15:13:00
10:33 AM,64.4,62.6,94,29.61,5.0,SSE,11.5,17.3,0.03,Rain,Light Rain,150,2013-09-28 15:33:00
10:53 AM,64.4,62.6,94,29.61,5.0,SSE,12.7,19.6,0.05,Rain,Light Rain,160,2013-09-28 15:53:00
11:13 AM,64.4,62.6,94,29.64,4.0,WSW,18.4,24.2,0.04,Rain,Heavy Rain,250,2013-09-28 16:13:00
11:33 AM,57.2,53.6,88,29.67,4.0,WSW,13.8,23.0,0.06,Rain,Rain,240,2013-09-28 16:33:00
11:53 AM,55.4,53.6,94,29.68,4.0,WSW,12.7,18.4,0.07,,Drizzle,240,2013-09-28 16:53:00
12:13 PM,55.4,51.8,88,29.70,4.0,WSW,15.0,24.2,N/A,,Drizzle,250,2013-09-28 17:13:00
12:33 PM,55.4,51.8,88,29.71,7.0,WSW,12.7,17.3,0.05,Rain,Rain,250,2013-09-28 17:33:00
12:53 PM,55.4,51.8,88,29.72,10.0,WSW,16.1,23.0,0.07,,Drizzle,250,2013-09-28 17:53:00
1:13 PM,55.4,51.8,88,29.72,10.0,WSW,12.7,17.3,N/A,Rain,Rain,250,2013-09-28 18:13:00
1:33 PM,55.4,51.8,88,29.72,10.0,WSW,11.5,18.4,N/A,Rain,Rain,250,2013-09-28 18:33:00
1:53 PM,57.2,53.6,88,29.72,10.0,WSW,11.5,19.6,N/A,,Overcast,250,2013-09-28 18:53:00
2:13 PM,57.2,53.6,88,29.73,10.0,WSW,10.4,16.1,N/A,,Mostly Cloudy,250,2013-09-28 19:13:00
2:33 PM,57.2,51.8,82,29.75,10.0,WSW,11.5,16.1,N/A,,Overcast,250,2013-09-28 19:33:00
2:53 PM,59.0,53.6,82,29.75,10.0,WSW,10.4,17.3,N/A,,Overcast,250,2013-09-28 19:53:00
3:13 PM,60.8,51.8,72,29.76,10.0,WSW,13.8,17.3,N/A,,Overcast,240,2013-09-28 20:13:00
3:33 PM,60.8,51.8,72,29.77,10.0,SW,13.8,18.4,N/A,,Overcast,230,2013-09-28 20:33:00
3:53 PM,59.0,50.0,72,29.78,10.0,WSW,10.4,19.6,N/A,,Overcast,240,2013-09-28 20:53:00
4:13 PM,59.0,50.0,72,29.79,10.0,WSW,10.4,18.4,N/A,,Overcast,240,2013-09-28 21:13:00
4:33 PM,59.0,48.2,67,29.80,10.0,WSW,12.7,18.4,N/A,,Overcast,240,2013-09-28 21:33:00
4:53 PM,57.2,48.2,72,29.81,10.0,WSW,11.5,16.1,N/A,,Overcast,250,2013-09-28 21:53:00
5:13 PM,59.0,48.2,67,29.82,10.0,WSW,11.5,-,N/A,,Overcast,250,2013-09-28 22:13:00
5:33 PM,57.2,48.2,72,29.82,10.0,WSW,12.7,17.3,N/A,,Overcast,240,2013-09-28 22:33:00
5:53 PM,57.2,48.2,72,29.83,10.0,WSW,8.1,-,N/A,,Overcast,250,2013-09-28 22:53:00
6:13 PM,57.2,46.4,67,29.84,10.0,WSW,8.1,-,N/A,,Scattered Clouds,250,2013-09-28 23:13:00
6:33 PM,57.2,46.4,67,29.85,10.0,WSW,9.2,-,N/A,,Scattered Clouds,240,2013-09-28 23:33:00
6:53 PM,57.2,46.4,67,29.87,10.0,WSW,9.2,17.3,N/A,,Mostly Cloudy,250,2013-09-28 23:53:00
7:13 PM,55.4,44.6,67,29.88,10.0,WSW,6.9,-,N/A,,Scattered Clouds,250,2013-09-29 00:13:00
7:33 PM,55.4,44.6,67,29.89,10.0,West,9.2,-,N/A,,Clear,260,2013-09-29 00:33:00
7:53 PM,53.6,44.6,72,29.90,10.0,WSW,5.8,-,N/A,,Clear,250,2013-09-29 00:53:00
8:13 PM,51.8,44.6,76,29.91,10.0,Calm,Calm,-,N/A,,Clear,0,2013-09-29 01:13:00
8:33 PM,51.8,44.6,76,29.91,10.0,Calm,Calm,-,N/A,,Clear,0,2013-09-29 01:33:00
8:53 PM,50.0,44.6,82,29.91,10.0,Calm,Calm,-,N/A,,Clear,0,2013-09-29 01:53:00
9:13 PM,46.4,42.8,87,29.91,10.0,Calm,Calm,-,N/A,,Clear,0,2013-09-29 02:13:00
9:33 PM,46.4,44.6,93,29.91,10.0,Calm,Calm,-,N/A,,Clear,0,2013-09-29 02:33:00
9:53 PM,46.4,44.6,93,29.91,10.0,Calm,Calm,-,N/A,,Clear,0,2013-09-29 02:53:00
10:13 PM,46.4,42.8,87,29.91,10.0,Calm,Calm,-,N/A,,Clear,0,2013-09-29 03:13:00
10:33 PM,46.4,42.8,87,29.91,10.0,South,3.5,-,N/A,,Clear,170,2013-09-29 03:33:00
10:53 PM,46.4,42.8,87,29.91,10.0,South,3.5,-,N/A,,Clear,170,2013-09-29 03:53:00
11:13 PM,46.4,42.8,87,29.92,10.0,South,3.5,-,N/A,,Clear,170,2013-09-29 04:13:00
11:33 PM,46.4,42.8,87,29.92,10.0,Calm,Calm,-,N/A,,Clear,0,2013-09-29 04:33:00
11:54 PM,46.4,42.8,87,29.92,10.0,SSE,3.5,-,N/A,,Clear,160,2013-09-29 04:54:00